Temp
71 64 62 68 71 74 74 73 71 77 84 79 77 79 84 87 87 86 87 88 90 90 95 97 98 97 91 91 88 86 83 84 83 82 82 83 83 83 85 85 84 83 82 79
66 60 70 75 75 73 71 69 70 76 82 78 77 76 82 85 85 85 85 87 88 90 92 95 97 91 87 85 83 82 82 82 82 83 83 86 85 86 86 86 84 82 81 80
60 67 74 72 71 70 70 68 69 70 77 78 76 71 75 82 84 85 87 88 89 89 90 92 94 88 85 83 81 81 81 80 81 83 85 84 84 84 82 83 82 80 79 77
64 72 71 70 69 72 64 76 73 71 69 62 76 60 71 78 80 83 86 87 89 90 92 93 95 86 83 83 83 81 80 78 82 82 81 79 80 80 84 84 85 82 79 78
60 65 66 67 69 75 70 77 74 73 68 67 67 63 69 78 75 80 84 87 89 91 92 94 93 86 85 83 81 80 79 79 80 80 82 80 81 83 84 83 80 77 78 76
64 74 72 70 75 77 78 74 73 73 69 57 65 64 65 72 77 82 86 89 90 92 93 94 89 85 83 83 81 79 78 78 79 81 81 79 79 80 81 79 79 75 73 74
59 63 72 75 68 75 75 67 57 53 53 53 69 65 68 78 83 84 85 88 91 91 88 87 84 83 81 81 80 80 79 77 79 80 80 80 79 78 76 77 72 74 73 72
50 48 63 72 70 67 69 67 59 47 52 59 69 60 70 83 86 87 89 89 89 86 86 84 83 82 83 81 80 81 79 78 80 80 80 80 80 81 81 77 78 70 75 74
51 53 69 71 74 73 68 65 73 64 68 63 68 73 79 83 83 85 86 88 87 85 84 84 84 83 83 82 81 80 80 80 80 80 80 79 79 80 75 76 76 76 75 74
53 49 65 70 73 74 72 77 62 67 53 52 63 66 67 75 80 84 85 86 87 85 85 84 84 83 83 82 82 82 81 80 80 81 81 80 79 79 78 77 76 72 76 79
54 43 54 65 64 64 68 68 68 69 67 57 56 62 80 78 83 84 87 88 85 84 85 84 84 84 84 84 83 81 81 81 80 81 81 75 77 79 79 76 77 72 75 75
57 47 42 57 71 75 73 69 68 62 59 67 66 66 82 82 84 84 87 87 87 86 85 86 85 84 84 83 82 81 81 82 82 83 82 76 78 78 76 75 76 76 73 77
48 47 40 47 62 70 68 71 72 70 71 62 62 66 83 84 83 85 86 87 85 85 85 86 85 84 84 83 83 83 82 83 84 84 82 78 79 76 74 75 73 78 78 78
43 47 45 41 55 66 63 69 72 69 63 64 66 70 76 79 80 82 83 84 85 85 84 85 84 84 84 84 84 84 83 84 84 84 82 77 75 75 73 73 75 78 79 79
42 42 50 45 51 62 67 68 71 67 69 66 69 71 75 80 80 81 83 84 84 85 84 84 84 84 84 84 84 84 85 85 84 84 82 75 76 78 78 74 78 79 79 80
46 42 47 42 48 56 65 69 71 71 71 73 74 72 81 85 87 83 83 84 83 84 85 85 85 85 84 83 84 84 84 84 84 83 82 80 81 80 78 78 77 78 76 76
43 39 44 34 47 52 55 66 69 71 74 73 68 74 82 82 81 78 80 83 84 86 86 85 85 85 84 84 84 83 84 84 83 83 83 82 80 79 78 79 78 77 73 74
45 41 43 39 45 39 62 74 76 73 74 77 77 77 79 78 80 81 84 83 84 87 87 86 87 85 85 86 85 85 85 84 84 84 83 83 82 80 80 79 77 76 73 73
55 44 40 36 40 53 59 67 68 69 62 69 71 75 75 76 76 77 79 80 82 86 90 89 89 87 85 85 85 85 84 85 84 84 83 83 83 80 79 75 75 76 72 73
52 51 37 42 39 36 50 65 70 70 55 66 68 68 68 71 70 71 76 79 81 84 92 89 89 88 85 85 85 84 84 84 84 85 85 85 84 82 80 78 77 76 76 76
37 38 37 44 44 48 56 67 70 55 51 65 67 68 67 67 70 71 77 79 81 84 90 91 89 86 84 85 84 83 83 83 86 87 87 85 84 81 80 78 77 77 77 77
35 38 44 48 39 37 60 63 56 58 65 66 68 68 68 70 73 75 78 78 81 82 87 91 88 86 85 86 84 83 82 86 88 88 86 85 82 84 82 78 77 78 76 74
36 37 36 37 35 46 58 56 61 66 65 67 68 70 70 71 73 76 77 79 82 84 88 91 89 86 85 85 85 83 84 87 87 86 84 83 83 84 82 78 77 78 76 77
40 44 39 39 43 51 57 59 61 64 66 68 71 71 72 70 75 76 79 80 82 86 87 91 89 86 84 85 85 86 86 88 87 84 83 82 81 81 81 82 81 81 79 79
40 42 39 40 44 51 58 59 61 64 66 68 70 72 72 73 74 76 78 81 84 85 88 89 88 87 85 86 86 87 88 88 85 83 82 81 82 80 80 82 82 83 82 78
46 40 38 37 46 46 53 61 64 63 64 66 67 69 73 75 74 76 77 80 82 84 87 88 88 88 88 88 87 88 90 88 85 82 83 83 84 81 83 82 80 45 51 51
MSLP
1004.51 1004.48 1001.49 998.46 999.44 998.95 998.91 998.45 997.36 996.93 996.72 996.94 996.41 995.69 995.35 996.21 996.58 996.36 996.21 995.97 995.62 996.05 996.33 996.28 996.07 996.42 997.75 998.42 999.12 999.77 1000.61 1001.26 1002.21 1003.04 1003.59 1004.04 1004.50 1004.96 1005.24 1005.54 1006.03 1006.60 1006.86 1007.04
1003.53 1001.12 997.16 1000.54 999.73 999.51 999.11 998.37 997.04 997.15 996.48 996.33 996.06 995.38 995.16 995.39 995.51 995.74 995.76 995.49 995.51 995.61 995.63 995.28 995.41 996.59 997.88 998.84 999.54 1000.30 1000.82 1001.41 1002.25 1002.85 1003.24 1003.38 1003.95 1004.37 1004.76 1005.07 1005.65 1006.37 1006.62 1006.83
1001.30 997.03 1000.57 999.62 998.98 998.40 997.81 997.44 997.59 996.96 996.80 996.45 996.57 995.31 995.07 995.32 995.42 995.32 995.10 994.97 994.83 994.59 994.50 994.72 995.09 996.56 997.92 998.95 999.74 1000.30 1000.98 1001.73 1002.37 1002.62 1003.06 1003.66 1004.07 1004.29 1004.83 1004.98 1005.49 1006.00 1006.58 1006.88
1000.54 999.65 998.33 998.43 997.40 997.32 996.39 997.30 997.64 997.40 997.15 996.30 996.80 994.11 994.24 994.24 993.81 993.89 993.54 993.49 993.32 993.44 993.61 994.00 994.35 996.48 997.99 999.02 999.92 1000.56 1001.31 1002.13 1002.35 1002.78 1003.18 1003.64 1003.77 1003.93 1003.94 1004.39 1004.64 1005.55 1006.28 1006.65
998.42 998.91 997.85 997.03 995.16 997.05 994.61 997.11 996.95 997.15 997.15 997.09 996.39 995.25 993.57 993.52 992.77 992.49 992.19 992.11 992.14 992.45 992.96 993.19 994.01 996.47 997.93 999.12 999.98 1000.79 1001.60 1002.15 1002.48 1002.98 1003.14 1003.67 1003.59 1003.79 1004.13 1004.48 1005.22 1005.96 1006.35 1006.81
999.34 998.67 997.51 996.32 996.31 995.94 996.52 996.57 996.65 996.70 996.77 995.68 995.49 994.90 992.55 992.26 991.71 991.01 990.79 990.79 990.93 991.31 991.92 992.89 994.83 996.73 998.06 999.21 1000.13 1000.92 1001.66 1002.13 1002.72 1002.93 1003.29 1003.59 1003.88 1004.02 1004.10 1004.74 1005.01 1005.96 1006.54 1006.89
999.84 998.24 996.97 996.14 996.01 995.62 995.36 995.64 995.71 995.93 995.31 993.49 994.55 993.71 991.30 991.31 990.99 990.60 990.41 990.45 990.45 991.11 992.49 994.04 995.68 996.89 998.13 999.10 999.98 1000.85 1001.51 1002.26 1002.78 1003.06 1003.48 1003.76 1004.14 1004.44 1004.79 1005.03 1005.34 1005.78 1006.26 1006.77
999.51 998.15 996.87 995.17 993.98 993.82 993.90 994.03 993.19 992.92 992.86 992.92 993.07 991.60 990.54 990.34 990.10 990.38 990.09 990.40 991.21 992.37 993.51 994.81 995.97 996.96 997.95 998.98 999.87 1000.49 1001.49 1002.16 1002.68 1003.11 1003.48 1003.74 1004.12 1004.15 1004.40 1005.06 1005.19 1005.51 1006.07 1006.35
999.90 997.06 996.06 995.35 994.53 993.81 992.65 992.73 992.56 992.74 991.97 991.54 990.34 989.80 990.12 989.61 989.46 989.77 989.66 990.29 991.25 992.65 993.87 994.92 996.05 996.96 997.91 998.93 999.74 1000.54 1001.29 1001.99 1002.58 1003.07 1003.41 1003.80 1004.22 1004.23 1004.94 1005.29 1005.47 1005.60 1006.13 1006.15
1001.51 997.97 995.62 994.26 994.81 993.10 991.68 991.82 993.05 992.20 991.08 990.18 990.06 989.13 988.96 988.64 988.22 988.93 989.35 990.01 991.05 992.76 993.91 995.07 996.07 997.00 998.09 999.04 999.83 1000.64 1001.31 1001.93 1002.49 1002.99 1003.33 1003.71 1004.12 1004.69 1005.06 1005.35 1005.33 1005.98 1005.98 1005.77
1003.00 1001.40 996.86 994.78 992.39 991.79 990.95 990.55 991.43 991.71 990.91 989.99 989.57 989.07 988.43 988.55 988.17 988.50 988.93 989.56 991.26 992.69 993.87 995.13 996.07 997.15 998.24 999.10 999.93 1000.76 1001.29 1001.90 1002.41 1002.80 1003.24 1003.73 1004.12 1004.72 1004.91 1005.33 1005.49 1006.13 1006.19 1006.23
1002.87 1001.71 998.45 994.37 992.20 991.87 990.94 990.31 990.81 989.87 990.02 989.97 989.13 989.00 989.39 988.91 989.02 989.14 988.95 990.07 991.52 992.75 993.92 994.97 995.96 997.12 998.10 998.95 999.87 1000.61 1001.18 1001.62 1002.25 1002.57 1003.00 1003.66 1004.08 1004.67 1005.11 1005.44 1005.58 1005.94 1006.32 1006.15
1005.27 1002.04 999.12 996.23 992.66 991.48 989.98 989.94 990.02 990.69 989.87 989.79 988.87 988.99 989.38 989.14 989.41 989.76 989.47 990.58 991.89 992.82 993.89 994.96 996.11 996.99 997.79 998.79 999.64 1000.30 1000.92 1001.39 1001.93 1002.22 1002.85 1003.50 1003.97 1004.76 1005.23 1005.39 1005.77 1005.71 1005.83 1006.01
1007.13 1003.54 999.47 997.02 993.58 991.23 989.64 989.17 989.13 989.70 989.32 989.12 989.15 988.86 988.97 989.43 989.83 990.37 990.66 991.36 992.17 993.08 993.97 994.92 995.97 996.82 997.63 998.61 999.36 1000.04 1000.59 1001.12 1001.59 1001.96 1002.52 1003.35 1004.14 1004.77 1005.19 1005.47 1005.68 1005.70 1005.82 1005.94
1006.38 1002.97 999.89 999.44 996.58 992.61 990.26 988.84 988.30 988.67 989.07 988.41 988.81 988.75 988.99 989.23 990.08 991.00 991.28 991.78 992.40 993.05 993.97 994.89 995.77 996.56 997.49 998.42 999.19 999.86 1000.36 1000.91 1001.53 1001.75 1002.29 1003.40 1004.10 1004.45 1004.77 1005.33 1005.33 1005.56 1005.74 1005.67
1005.41 1003.03 1000.62 1000.01 998.53 994.16 989.80 989.21 988.79 988.89 989.43 988.91 988.78 989.16 989.38 989.49 990.20 991.10 991.65 992.02 992.53 993.15 993.90 994.82 995.63 996.44 997.35 998.29 998.99 999.71 1000.15 1000.84 1001.46 1001.74 1002.25 1003.22 1003.67 1004.23 1004.76 1005.13 1005.35 1005.63 1005.78 1005.93
1004.59 1004.09 1001.89 1000.98 999.16 995.05 990.83 988.85 988.53 989.05 989.52 989.59 989.47 990.02 990.06 990.34 991.20 992.39 992.86 992.68 992.63 993.03 993.75 994.72 995.61 996.39 997.16 998.11 998.82 999.66 1000.14 1000.85 1001.36 1001.62 1002.22 1002.97 1003.75 1004.29 1004.81 1005.05 1005.29 1005.60 1006.04 1006.08
1004.09 1003.48 1002.79 1000.47 999.23 995.54 991.35 989.81 989.04 989.35 990.29 990.75 990.74 991.26 991.62 992.07 992.96 993.52 993.66 993.39 993.11 992.91 993.60 994.58 995.39 996.34 997.36 998.05 998.68 999.60 1000.18 1000.72 1001.15 1001.43 1002.05 1002.84 1003.54 1004.26 1004.65 1004.96 1005.33 1005.77 1006.28 1006.52
1003.23 1003.80 1003.00 1000.99 999.12 995.47 993.19 991.58 990.64 990.28 992.56 993.50 992.93 992.89 993.70 994.34 994.66 994.45 994.94 994.88 994.13 993.26 993.24 994.25 995.18 996.28 997.34 998.13 998.72 999.45 1000.01 1000.46 1000.90 1001.30 1001.92 1002.64 1003.40 1004.05 1004.54 1005.14 1005.60 1005.89 1006.46 1006.78
1003.50 1003.57 1003.66 1001.30 999.23 997.53 995.93 994.22 993.65 992.85 994.42 995.98 995.66 995.50 995.79 995.74 994.85 995.33 995.76 995.40 994.60 993.75 992.88 993.98 994.96 996.06 997.16 998.09 998.92 999.24 999.77 1000.22 1000.67 1001.15 1001.78 1002.47 1003.20 1003.90 1004.35 1005.02 1005.58 1006.05 1006.24 1006.38
1004.55 1004.51 1003.57 1001.78 999.50 998.88 997.87 995.82 995.13 995.19 997.71 997.48 997.20 997.12 997.11 996.68 996.67 996.78 996.06 995.38 995.10 994.36 993.27 993.99 994.85 995.86 997.08 998.03 998.89 999.18 999.61 1000.03 1000.50 1001.03 1001.70 1002.42 1003.20 1003.95 1004.61 1005.33 1005.73 1005.92 1006.06 1006.40
1005.66 1004.67 1003.54 1002.19 1001.41 1000.88 999.03 997.74 997.14 998.56 998.53 998.51 998.27 998.23 997.94 997.66 997.06 996.50 995.90 995.40 994.96 994.48 993.87 993.85 994.66 995.72 996.90 997.80 998.66 999.04 999.47 999.89 1000.33 1000.91 1001.62 1002.31 1003.30 1003.72 1004.56 1005.40 1005.80 1006.04 1006.38 1006.79
1006.85 1006.42 1005.63 1005.62 1004.90 1003.48 1001.40 1001.12 1000.46 999.82 999.42 999.27 998.92 998.71 998.35 997.71 997.11 996.43 995.72 995.14 994.51 994.21 993.66 993.64 994.39 995.53 996.64 997.48 998.24 998.70 999.35 999.74 1000.13 1000.79 1001.53 1002.35 1003.20 1003.60 1004.39 1005.19 1005.76 1005.99 1006.36 1006.30
1007.34 1007.05 1006.29 1005.91 1005.32 1003.54 1002.56 1002.19 1001.78 1001.31 1000.63 1000.08 999.36 998.87 998.26 997.83 997.07 996.45 995.56 994.91 994.38 993.80 993.58 993.42 994.05 995.07 996.25 997.12 997.90 998.40 999.11 999.54 999.98 1000.69 1001.48 1002.35 1003.10 1003.57 1004.24 1004.95 1005.55 1005.40 1005.79 1005.81
1008.28 1007.69 1006.99 1006.44 1005.69 1004.02 1003.22 1002.69 1002.43 1001.98 1001.46 1000.77 1000.18 999.26 998.53 998.02 997.45 996.84 995.89 994.93 994.26 993.87 993.53 993.43 993.81 994.62 995.72 996.65 997.44 998.06 998.66 999.19 999.71 1000.58 1001.39 1002.15 1002.82 1003.52 1004.03 1004.60 1005.25 1005.22 1005.38 1005.68
1008.00 1007.91 1007.42 1006.93 1006.58 1005.86 1004.31 1003.20 1002.61 1002.19 1001.65 1001.27 1000.82 999.84 999.00 998.46 997.99 997.36 996.49 995.68 995.05 994.13 993.70 993.50 993.72 994.20 995.03 996.03 996.84 997.47 998.14 998.79 999.48 1000.28 1001.06 1001.70 1002.18 1003.11 1003.40 1004.15 1005.06 1006.02 1006.23 1006.14
Wind_Speed
24 21 28 44 35 30 29 27 33 31 26 28 31 31 23 21 25 27 26 28 23 22 24 23 19 4 6 7 7 11 13 13 13 12 12 11 10 8 7 6 7 6 7 4
26 32 49 24 31 31 32 31 33 28 28 23 25 28 25 23 24 25 27 27 25 23 26 23 15 7 6 8 10 12 14 14 13 10 10 8 7 8 8 7 6 6 6 7
31 45 24 32 32 32 32 33 27 30 24 21 22 27 28 25 27 28 28 29 28 27 24 19 17 8 7 10 12 13 15 16 13 12 7 6 5 2 4 5 7 7 6 3
30 33 35 32 35 35 34 28 27 25 22 17 21 24 25 18 24 23 23 22 21 21 19 19 11 10 10 10 12 14 15 16 13 11 10 9 8 7 5 2 1 2 2 6
30 31 35 35 42 30 34 24 25 25 21 23 24 20 16 21 22 23 23 23 21 20 20 19 12 12 11 12 13 15 16 15 14 11 9 8 6 6 3 3 2 4 2 3
32 27 29 40 33 29 28 27 25 20 17 22 22 21 20 21 20 19 19 15 19 19 16 6 12 14 13 14 15 16 17 14 14 11 10 8 6 1 1 4 1 1 2 3
29 31 28 30 33 36 27 23 16 17 19 21 18 21 22 19 18 17 16 11 5 10 10 12 15 15 16 17 17 17 17 15 13 12 10 7 6 4 4 3 4 5 3 3
24 28 33 27 30 36 31 28 17 28 12 15 22 18 16 17 10 8 11 12 10 8 11 14 15 16 18 18 18 17 16 15 13 12 10 7 6 7 4 3 5 5 3 5
18 30 28 35 25 27 39 30 30 24 20 15 13 17 15 17 14 9 10 14 14 12 14 16 17 17 18 18 17 17 16 14 13 11 9 7 6 1 6 4 2 5 4 4
17 22 31 27 29 31 33 27 24 23 24 14 14 10 8 2 7 13 10 13 13 14 16 17 16 18 16 16 16 15 14 14 12 11 9 8 6 4 5 3 1 4 5 4
21 5 16 30 34 30 26 25 30 20 18 15 11 8 2 5 2 15 14 13 15 17 17 17 17 17 17 16 15 14 13 13 11 10 9 6 6 5 5 4 4 5 4 4
16 7 13 27 28 29 29 27 31 16 22 17 11 4 4 9 7 5 4 12 15 16 18 17 18 18 17 16 15 14 12 12 11 10 9 7 7 4 4 5 5 10 5 5
9 11 14 9 20 29 32 34 26 27 16 18 9 4 8 9 6 1 2 14 15 17 18 18 18 17 17 16 15 14 12 12 12 10 10 7 6 5 5 6 5 6 7 6
10 15 18 6 11 21 28 33 30 28 17 18 18 12 14 14 12 10 7 12 15 17 18 18 17 16 16 15 15 14 12 12 11 10 9 8 7 5 6 4 7 7 6 6
6 18 25 6 24 24 24 27 24 31 19 16 18 14 14 13 13 8 9 12 15 16 17 17 17 16 16 15 14 13 12 12 11 9 8 8 7 8 8 6 7 7 6 7
9 11 17 17 21 35 23 31 27 23 27 17 12 18 11 4 11 7 9 10 13 15 16 16 17 17 16 16 14 13 12 12 11 9 11 9 8 8 8 7 7 7 4 3
8 6 6 17 20 27 14 19 27 25 24 16 12 6 8 6 7 13 9 6 10 13 14 15 16 16 15 15 14 13 12 12 11 10 11 10 9 9 9 9 9 8 4 3
13 10 4 4 12 11 9 8 23 19 19 16 14 4 12 10 5 6 7 7 7 11 13 15 14 15 14 15 15 13 13 13 12 11 11 11 11 10 10 8 7 6 5 4
10 4 6 4 11 12 4 7 5 21 14 11 5 3 10 7 6 8 8 8 9 14 14 14 14 15 14 15 15 14 14 13 12 12 12 12 12 11 10 6 7 6 6 5
6 5 4 7 10 8 9 7 6 5 12 8 6 6 6 7 10 10 8 8 9 14 13 14 16 16 15 15 15 15 15 14 13 13 12 13 12 10 9 8 8 6 5 4
3 2 8 12 8 7 11 12 5 11 8 6 7 8 6 7 10 10 9 6 6 9 5 14 16 15 15 16 15 15 15 14 13 14 13 13 12 11 11 8 6 6 5 7
3 4 6 5 1 5 17 4 5 8 7 8 7 8 8 7 8 8 7 5 5 5 11 15 15 16 16 17 16 15 15 15 14 14 14 13 13 10 10 9 7 6 6 7
0 4 3 3 2 13 15 14 12 10 9 9 8 7 7 8 9 8 7 5 5 6 11 14 15 17 17 17 17 16 15 15 15 15 14 13 14 10 11 9 8 7 6 7
2 7 3 3 9 6 12 13 10 11 10 11 11 8 9 10 10 10 8 6 5 5 10 13 16 18 17 17 17 16 16 16 16 15 14 13 12 10 11 9 8 7 7 5
4 7 6 0 12 10 14 11 9 10 11 12 12 12 11 11 11 12 10 8 5 4 7 12 15 16 18 18 18 17 17 17 15 15 14 13 12 11 11 9 7 7 6 4
2 4 4 3 4 6 11 11 12 12 12 12 12 11 11 11 11 12 11 11 11 7 6 11 14 16 18 19 19 18 18 17 16 14 13 12 11 12 11 10 8 11 9 9
Wind_Direction
203 211 219 219 218 236 242 246 247 249 247 238 257 269 264 250 255 263 274 279 272 269 279 280 273 261 267 252 210 185 184 182 168 179 186 189 184 195 197 213 218 237 248 257
214 217 222 221 229 229 243 252 252 263 265 260 260 268 271 270 282 285 280 278 277 278 275 268 264 154 207 195 182 185 183 166 179 174 193 183 192 185 202 200 198 223 260 243
222 226 227 222 231 234 231 235 245 255 262 263 273 273 272 268 265 262 262 263 260 258 261 268 257 155 174 184 177 174 173 165 180 175 168 162 163 160 185 209 216 192 223 241
235 238 235 224 230 228 236 230 242 255 266 264 251 266 258 263 265 268 273 271 268 259 257 244 225 157 176 170 167 160 157 166 174 159 154 166 179 200 200 210 41 181 159 250
240 229 233 236 227 227 241 234 238 238 246 260 253 260 273 265 265 264 259 255 259 251 243 248 162 158 166 155 156 153 155 169 147 179 164 171 221 175 211 214 119 225 247 272
244 247 234 234 243 228 238 232 241 244 250 246 242 253 266 268 276 284 284 260 249 230 229 153 134 148 149 155 152 151 157 154 160 160 155 210 153 275 227 200 179 134 211 231
243 246 244 239 222 238 224 216 221 224 225 245 242 246 260 274 275 280 291 256 226 105 127 148 153 155 155 153 151 153 155 151 159 156 159 157 162 169 193 249 189 188 185 210
226 228 233 234 231 214 222 206 213 213 214 231 223 243 256 254 253 271 263 235 130 157 152 159 157 150 151 150 153 151 152 155 158 159 164 153 148 187 213 168 337 85 157 201
266 232 226 226 229 236 211 213 216 248 218 245 236 222 238 248 248 246 233 186 150 161 160 154 150 154 150 150 153 150 154 155 161 159 162 155 169 65 67 70 234 112 170 175
282 257 221 223 219 240 224 208 204 224 239 224 242 241 238 186 199 174 197 179 154 154 155 150 152 149 146 150 147 154 154 157 160 161 156 164 149 151 136 164 162 103 168 138
287 287 261 234 202 214 215 200 213 220 229 229 235 248 182 198 227 181 196 163 151 161 152 153 148 144 148 149 148 152 155 159 159 161 169 129 147 173 163 132 161 147 156 148
274 252 265 224 208 215 215 214 204 217 206 237 212 146 80 174 242 357 328 124 152 157 155 154 148 150 153 151 154 159 158 157 163 167 165 145 160 197 124 168 155 139 207 174
1 236 258 222 226 205 215 209 202 220 221 204 218 175 211 141 105 72 132 140 154 154 155 151 151 158 155 155 159 158 162 160 167 172 158 150 147 162 160 164 133 176 153 180
295 262 256 254 223 197 210 202 202 201 218 185 222 128 146 140 115 87 121 141 154 161 155 155 160 160 157 160 161 157 166 163 163 170 160 142 139 155 172 147 159 163 174 168
262 249 244 259 300 281 209 209 198 192 203 220 181 197 173 144 94 90 114 159 158 160 165 162 166 162 157 160 160 159 165 159 161 167 152 106 124 169 142 157 153 158 166 191
278 275 262 248 287 284 191 212 197 197 209 209 170 200 206 262 106 67 94 170 169 166 172 168 168 163 163 161 164 161 164 155 163 167 133 161 132 136 136 143 148 164 163 159
287 327 175 243 256 268 207 212 187 195 199 211 194 206 174 141 61 44 25 11 183 174 176 175 174 167 163 164 165 164 163 159 162 170 140 136 140 137 146 156 163 156 140 161
267 298 283 247 233 231 196 231 193 189 195 212 232 174 56 41 22 5 346 317 279 185 177 177 175 167 166 163 162 166 162 165 167 165 151 142 149 146 152 157 141 149 128 144
240 280 274 213 209 92 196 76 27 195 81 27 331 42 25 16 323 244 36 352 326 303 175 176 173 166 167 168 160 168 164 169 170 162 154 153 147 152 152 143 151 155 138 151
281 221 284 281 230 185 7 26 21 1 111 50 23 47 6 334 248 87 351 342 329 308 166 172 171 164 169 171 167 170 166 173 173 163 162 153 153 149 147 137 148 152 176 158
258 184 242 241 216 118 328 359 156 214 79 42 36 41 17 332 341 319 305 322 309 296 212 170 168 168 171 170 172 179 169 176 174 162 165 155 150 155 130 136 145 159 196 104
283 302 183 276 155 90 345 58 1 59 85 44 33 31 15 339 316 313 310 298 279 259 245 176 171 169 171 172 178 184 176 177 173 166 168 157 150 173 144 146 148 161 125 131
112 354 359 29 61 296 57 61 41 25 39 31 14 18 359 355 340 331 320 311 278 232 229 183 175 171 174 177 181 185 180 180 173 169 168 166 163 185 149 160 162 153 186 149
35 356 26 322 356 73 56 46 34 24 11 4 4 11 10 354 354 352 333 329 286 231 224 190 178 175 177 181 183 188 179 185 175 171 171 170 174 187 160 175 176 177 181 181
349 351 352 72 13 336 13 21 26 13 0 359 360 351 8 355 356 353 352 353 329 289 212 202 187 181 179 182 184 188 180 186 177 174 175 176 183 190 169 200 178 201 180 172
46 348 7 19 339 298 317 342 19 353 356 353 347 343 358 355 356 354 359 357 339 313 250 208 194 190 181 183 185 186 183 185 180 177 180 183 185 181 184 192 162 50 51 83